When you browse on this site, cookies collect data to enhance your experience and personalize the content and advertising you see.
Visit our Privacy Policy to learn more. By continuing to use the site, you agree to this use of cookies and data.

Stündliche Wetter Abowian

Heute, 18 September, Freitag

Zeit Temperatur Niederschläge Wind Luftdruck Luftfeuchtigkeit
00:00 +20°C° 0.1 mm 2 m/S 674 mmHg 64%
01:00 +19°C° 0 mm 2 m/S 674 mmHg 65%
02:00 +20°C° 0 mm 1 m/S 673 mmHg 67%
03:00 +20°C° 0 mm 1 m/S 673 mmHg 70%
04:00 +19°C° 0 mm 1 m/S 673 mmHg 71%
05:00 +19°C° 0 mm 1 m/S 673 mmHg 71%
06:00 +19°C° 0 mm 1 m/S 673 mmHg 72%
07:00 +21°C° 0 mm 1 m/S 673 mmHg 63%
08:00 +23°C° 0 mm 1 m/S 673 mmHg 54%
09:00 +26°C° 0 mm 2 m/S 673 mmHg 45%
10:00 +28°C° 0 mm 2 m/S 674 mmHg 40%
11:00 +29°C° 0 mm 2 m/S 674 mmHg 34%
12:00 +31°C° 0 mm 3 m/S 674 mmHg 29%
13:00 +31°C° 0 mm 2 m/S 673 mmHg 25%
14:00 +32°C° 0 mm 2 m/S 673 mmHg 21%
15:00 +34°C° 0 mm 2 m/S 672 mmHg 17%
16:00 +31°C° 0 mm 2 m/S 672 mmHg 20%
17:00 +29°C° 0 mm 2 m/S 672 mmHg 23%
18:00 +27°C° 0 mm 1 m/S 671 mmHg 26%
19:00 +26°C° 0 mm 2 m/S 671 mmHg 30%
20:00 +25°C° 0 mm 3 m/S 671 mmHg 34%
21:00 +24°C° 0 mm 3 m/S 671 mmHg 39%
22:00 +22°C° 0 mm 3 m/S 671 mmHg 42%
23:00 +21°C° 0 mm 2 m/S 671 mmHg 46%

Morgen, 19 September, Samstag

Zeit Temperatur Niederschläge Wind Luftdruck Luftfeuchtigkeit
00:00 +20°C° 0 mm 2 m/S 671 mmHg 49%
01:00 +20°C° 0 mm 2 m/S 671 mmHg 51%
02:00 +20°C° 0 mm 2 m/S 671 mmHg 52%
03:00 +19°C° 0 mm 2 m/S 670 mmHg 53%
04:00 +19°C° 0 mm 2 m/S 670 mmHg 52%
05:00 +18°C° 0 mm 2 m/S 670 mmHg 51%
06:00 +18°C° 0 mm 2 m/S 670 mmHg 49%
07:00 +21°C° 0 mm 2 m/S 671 mmHg 43%
08:00 +24°C° 0 mm 2 m/S 671 mmHg 36%
09:00 +27°C° 0 mm 2 m/S 672 mmHg 29%
10:00 +28°C° 0 mm 3 m/S 672 mmHg 26%
11:00 +30°C° 0 mm 3 m/S 672 mmHg 23%
12:00 +32°C° 0 mm 4 m/S 672 mmHg 21%
13:00 +32°C° 0 mm 4 m/S 672 mmHg 21%
14:00 +32°C° 0 mm 4 m/S 671 mmHg 21%
15:00 +33°C° 0 mm 5 m/S 671 mmHg 21%
16:00 +30°C° 0 mm 5 m/S 671 mmHg 26%
17:00 +27°C° 0 mm 4 m/S 671 mmHg 32%
18:00 +25°C° 0 mm 4 m/S 671 mmHg 38%
19:00 +23°C° 0 mm 4 m/S 671 mmHg 41%
20:00 +22°C° 0 mm 3 m/S 671 mmHg 44%
21:00 +21°C° 0 mm 3 m/S 671 mmHg 47%
22:00 +20°C° 0 mm 3 m/S 671 mmHg 48%
23:00 +20°C° 0 mm 2 m/S 671 mmHg 49%

übermorgen, 20 September, Sonntag

Zeit Temperatur Niederschläge Wind Luftdruck Luftfeuchtigkeit
00:00 +19°C° 0 mm 2 m/S 671 mmHg 50%
01:00 +19°C° 0 mm 2 m/S 671 mmHg 51%
02:00 +18°C° 0 mm 2 m/S 671 mmHg 53%
03:00 +18°C° 0 mm 2 m/S 671 mmHg 54%
04:00 +17°C° 0 mm 2 m/S 671 mmHg 57%
05:00 +17°C° 0 mm 2 m/S 671 mmHg 59%
06:00 +16°C° 0 mm 1 m/S 672 mmHg 61%
07:00 +18°C° 0 mm 2 m/S 672 mmHg 55%
08:00 +21°C° 0 mm 2 m/S 673 mmHg 49%
09:00 +24°C° 0 mm 2 m/S 673 mmHg 43%
10:00 +25°C° 0 mm 2 m/S 673 mmHg 39%
11:00 +27°C° 0 mm 2 m/S 673 mmHg 36%
12:00 +28°C° 0 mm 2 m/S 673 mmHg 32%
13:00 +28°C° 0 mm 2 m/S 672 mmHg 30%
14:00 +29°C° 0 mm 2 m/S 672 mmHg 28%
15:00 +30°C° 0 mm 2 m/S 672 mmHg 27%
16:00 +28°C° 0 mm 2 m/S 671 mmHg 32%
17:00 +26°C° 0 mm 2 m/S 671 mmHg 37%
18:00 +24°C° 0 mm 3 m/S 671 mmHg 41%
19:00 +22°C° 0 mm 3 m/S 671 mmHg 45%
20:00 +21°C° 0 mm 3 m/S 672 mmHg 49%
21:00 +20°C° 0 mm 3 m/S 672 mmHg 52%
22:00 +19°C° 0 mm 3 m/S 672 mmHg 54%
23:00 +19°C° 0 mm 2 m/S 672 mmHg 56%

21 September, Montag

Zeit Temperatur Niederschläge Wind Luftdruck Luftfeuchtigkeit
00:00 +18°C° 0 mm 2 m/S 672 mmHg 58%
01:00 +18°C° 0 mm 2 m/S 672 mmHg 61%
02:00 +17°C° 0 mm 2 m/S 672 mmHg 63%
03:00 +17°C° 0 mm 2 m/S 672 mmHg 66%
04:00 +16°C° 0 mm 2 m/S 672 mmHg 68%
05:00 +16°C° 0 mm 2 m/S 672 mmHg 70%
06:00 +15°C° 0 mm 1 m/S 672 mmHg 72%
07:00 +18°C° 0 mm 1 m/S 672 mmHg 64%
08:00 +20°C° 0 mm 2 m/S 673 mmHg 56%
09:00 +23°C° 0 mm 2 m/S 674 mmHg 49%
10:00 +24°C° 0.1 mm 2 m/S 674 mmHg 45%
11:00 +26°C° 0.1 mm 3 m/S 674 mmHg 41%
12:00 +27°C° 0.1 mm 3 m/S 674 mmHg 37%
13:00 +28°C° 0.1 mm 3 m/S 674 mmHg 36%
14:00 +28°C° 0.1 mm 3 m/S 674 mmHg 35%
15:00 +29°C° 0.1 mm 3 m/S 673 mmHg 34%
16:00 +27°C° 0 mm 4 m/S 673 mmHg 40%
17:00 +25°C° 0 mm 4 m/S 673 mmHg 47%
18:00 +22°C° 0 mm 5 m/S 672 mmHg 54%
19:00 +21°C° 0.1 mm 4 m/S 673 mmHg 56%
20:00 +20°C° 0.1 mm 4 m/S 673 mmHg 58%
21:00 +19°C° 0.1 mm 3 m/S 673 mmHg 60%
22:00 +19°C° 0.1 mm 3 m/S 673 mmHg 62%
23:00 +19°C° 0.1 mm 2 m/S 673 mmHg 63%

22 September, Dienstag

Zeit Temperatur Niederschläge Wind Luftdruck Luftfeuchtigkeit
00:00 +18°C° 0.1 mm 2 m/S 673 mmHg 65%
01:00 +19°C° 0 mm 1 m/S 672 mmHg 67%
02:00 +18°C° 0 mm 1 m/S 672 mmHg 69%
03:00 +18°C° 0 mm 1 m/S 672 mmHg 71%
04:00 +16°C° 0 mm 1 m/S 672 mmHg 73%
05:00 +16°C° 0 mm 1 m/S 672 mmHg 74%
06:00 +16°C° 0 mm 1 m/S 672 mmHg 76%
07:00 +19°C° 0 mm 1 m/S 672 mmHg 66%
08:00 +20°C° 0 mm 2 m/S 673 mmHg 57%
09:00 +24°C° 0 mm 2 m/S 673 mmHg 48%
10:00 +25°C° 0 mm 2 m/S 673 mmHg 43%
11:00 +27°C° 0 mm 2 m/S 673 mmHg 37%
12:00 +29°C° 0 mm 3 m/S 673 mmHg 32%
13:00 +29°C° 0 mm 3 m/S 673 mmHg 30%
14:00 +30°C° 0 mm 3 m/S 673 mmHg 28%
15:00 +31°C° 0 mm 3 m/S 672 mmHg 26%
16:00 +29°C° 0.2 mm 3 m/S 672 mmHg 31%
17:00 +27°C° 0.2 mm 3 m/S 672 mmHg 35%
18:00 +26°C° 0.2 mm 3 m/S 672 mmHg 40%
19:00 +23°C° 0.7 mm 4 m/S 672 mmHg 48%
20:00 +22°C° 0.7 mm 4 m/S 673 mmHg 56%
21:00 +20°C° 0.7 mm 5 m/S 673 mmHg 64%
22:00 +19°C° 0.2 mm 4 m/S 673 mmHg 65%
23:00 +19°C° 0.2 mm 3 m/S 673 mmHg 67%

23 September, Mittwoch

Zeit Temperatur Niederschläge Wind Luftdruck Luftfeuchtigkeit
00:00 +18°C° 0.2 mm 2 m/S 673 mmHg 68%
01:00 +18°C° 0 mm 2 m/S 672 mmHg 70%
02:00 +17°C° 0 mm 2 m/S 672 mmHg 72%
03:00 +17°C° 0 mm 2 m/S 672 mmHg 73%
04:00 +16°C° 0 mm 2 m/S 672 mmHg 74%
05:00 +16°C° 0 mm 2 m/S 673 mmHg 75%
06:00 +16°C° 0 mm 1 m/S 673 mmHg 76%
07:00 +19°C° 0 mm 1 m/S 673 mmHg 69%
08:00 +21°C° 0 mm 1 m/S 674 mmHg 61%
09:00 +23°C° 0 mm 1 m/S 674 mmHg 54%
10:00 +24°C° 0 mm 1 m/S 674 mmHg 50%
11:00 +25°C° 0 mm 2 m/S 675 mmHg 46%
12:00 +27°C° 0 mm 2 m/S 675 mmHg 42%
13:00 +27°C° 0 mm 3 m/S 675 mmHg 41%
14:00 +28°C° 0 mm 3 m/S 674 mmHg 40%
15:00 +28°C° 0 mm 4 m/S 674 mmHg 39%
16:00 +26°C° 0 mm 4 m/S 674 mmHg 44%
17:00 +25°C° 0 mm 4 m/S 673 mmHg 49%
18:00 +22°C° 0 mm 4 m/S 673 mmHg 54%
19:00 +21°C° 0 mm 4 m/S 673 mmHg 57%
20:00 +20°C° 0 mm 4 m/S 673 mmHg 59%
21:00 +19°C° 0 mm 3 m/S 674 mmHg 62%
22:00 +19°C° 0 mm 3 m/S 674 mmHg 64%
23:00 +18°C° 0 mm 2 m/S 674 mmHg 66%
Mehr zeigen